{"data":{"norad_id":58516,"intl_designator":"2023-191J","name":"STARLINK-31028","alt_names":[],"object_type":"PAYLOAD","status":"ACTIVE","operator":null,"country":"US","launch_date":"2023-12-07","launch_site_code":"AFETR","launch_vehicle":null,"mission":null,"orbit_class":"UNKNOWN","rcs_meters":null,"size_class":null,"mass_kg":null,"dimensions":null,"purposes":["comms"],"wikipedia_slug":null,"has_3d_model":false,"image_url":null,"decayed_at":null,"tle_current":{"epoch":"2026-05-25T01:12:04.370112Z","epoch_age_seconds":81459,"freshness":"FRESH","line1":"1 58516U 23191J   26145.05005058  .00000138  00000+0  14533-4 0  9993","line2":"2 58516  43.0044  31.8439 0001023 270.7389  89.3345 15.27583075137154","mean_motion":15.27583075,"eccentricity":0.0001023,"inclination_deg":43.0044,"raan_deg":31.8439,"arg_perigee_deg":270.7389,"mean_anomaly_deg":89.3345,"bstar":1.4533e-5,"rev_number":13715,"period_min":94.266558956213,"perigee_km":482.33799000319,"apogee_km":483.74178679456,"semimajor_km":6861.1768883989,"source":"CELESTRAK","updated_at":"2026-05-25T13:38:18.656864Z"}}}